Bowling Green, KY

9:11 PM CDT on April 26, 2018 (GMT -0500)
Bowling Green-Warren County Regional

Weather History for KBWG - March, 2013

Change the Weather History Date:

Saturday, March 23, 2013

  Actual Average Record
Temperature  
Mean Temperature 49 °F 51 °F  
Max Temperature 58 °F 62 °F 90 °F (1910)
Min Temperature 40 °F 39 °F 4 °F (1885)
Degree Days  
Heating Degree Days 16 15  
Month to date heating degree days 513 414  
Since 1 July heating degree days 3408 3612  
Cooling Degree Days 0 0  
Month to date cooling degree days 0 0  
Year to date cooling degree days 0 0  
Moisture  
Dew Point 31 °F    
Average Humidity 51    
Maximum Humidity 61    
Minimum Humidity 40    
Precipitation  
Precipitation 0.02 in 0.15 in 1.22 in (1975)
Month to date precipitation 4.03 3.21  
Year to date precipitation 11.72 10.78  
Snow  
Snow 0.00 in 0.00 in 0.50 in (1906)
Month to date snowfall 1.5 0.8  
Since 1 July snowfall 2.8 8.6  
Snow Depth 0.00 in    
Sea Level Pressure  
Sea Level Pressure 29.93 in    
Wind  
Wind Speed 7 mph (ENE)    
Max Wind Speed 15 mph    
Max Gust Speed 17 mph    
Visibility 10 miles    
Events      
T = Trace of Precipitation, MM = Missing Value Source: NWS Daily Summary

Daily Weather History Graph

Daily Weather History Graph

Search for Another Location

Airport or City:

Astronomy

Mar. 23, 2013 Rise Set
Actual Time 6:44 AM CDT 7:00 PM CDT
Civil Twilight 6:18 AM CDT 7:26 PM CDT
Nautical Twilight 5:48 AM CDT 7:56 PM CDT
Astronomical Twilight 5:17 AM CDT 8:27 PM CDT
Moon 3:31 PM CDT (3/23) 4:15 AM CDT (3/23)
Length of Visible Light 13h 07m
Length of Day
12h 16m
Waxing Gibbous, 85% of the Moon is Illuminated
Mar 23
Waxing Gibbous
Mar 27
Full
Apr 2
Last Quarter
Apr 10
New
Apr 18
First Quarter

Hourly Weather History & Observations

Time (CDT) Temp. Windchill Dew Point Humidity Pressure Visibility Wind Dir Wind Speed Gust Speed Precip Events Conditions
12:53 AM 41.0 °F 39.0 °F 27.0 °F 57% 30.02 in 10.0 mi ENE 3.5 mph - N/A   Overcast
1:53 AM 41.0 °F 38.0 °F 28.0 °F 60% 30.01 in 10.0 mi NE 4.6 mph - N/A   Overcast
2:53 AM 41.0 °F 37.1 °F 27.0 °F 57% 29.98 in 10.0 mi NE 5.8 mph - N/A   Overcast
3:53 AM 39.9 °F 36.7 °F 26.1 °F 58% 29.98 in 10.0 mi NE 4.6 mph - N/A   Overcast
4:53 AM 39.9 °F - 26.1 °F 58% 29.99 in 10.0 mi Calm Calm - N/A   Overcast
5:53 AM 41.0 °F 38.0 °F 26.1 °F 55% 30.01 in 10.0 mi NNE 4.6 mph - N/A   Overcast
6:53 AM 41.0 °F 38.0 °F 25.0 °F 53% 30.01 in 10.0 mi NE 4.6 mph - N/A   Overcast
7:53 AM 42.1 °F 38.4 °F 26.1 °F 53% 30.02 in 10.0 mi NE 5.8 mph - N/A   Overcast
8:53 AM 43.0 °F 38.8 °F 25.0 °F 49% 30.02 in 10.0 mi NE 6.9 mph - N/A   Overcast
9:53 AM 46.0 °F 43.1 °F 25.0 °F 44% 30.02 in 10.0 mi ENE 5.8 mph - N/A   Overcast
10:53 AM 51.1 °F - 28.9 °F 43% 30.01 in 10.0 mi ENE 9.2 mph - N/A   Mostly Cloudy
11:53 AM 54.0 °F - 32.0 °F 43% 29.99 in 10.0 mi NE 8.1 mph - N/A   Overcast
12:53 PM 55.0 °F - 35.1 °F 47% 29.99 in 10.0 mi ENE 10.4 mph - N/A   Overcast
1:53 PM 57.0 °F - 33.1 °F 40% 29.96 in 10.0 mi ENE 5.8 mph - N/A   Overcast
2:53 PM 57.0 °F - 35.1 °F 44% 29.92 in 10.0 mi ENE 12.7 mph - N/A   Overcast
3:53 PM 57.0 °F - 35.1 °F 44% 29.90 in 10.0 mi ENE 9.2 mph - N/A   Clear
4:53 PM 57.0 °F - 36.0 °F 45% 29.88 in 10.0 mi ENE 11.5 mph - N/A   Clear
5:53 PM 55.9 °F - 35.1 °F 45% 29.86 in 10.0 mi ENE 10.4 mph - N/A   Clear
6:53 PM 54.0 °F - 35.1 °F 49% 29.86 in 10.0 mi ENE 6.9 mph - N/A   Clear
7:53 PM 53.1 °F - 35.1 °F 50% 29.83 in 10.0 mi ENE 6.9 mph - N/A   Clear
8:53 PM 52.0 °F - 35.1 °F 53% 29.82 in 10.0 mi ENE 9.2 mph - N/A   Mostly Cloudy
9:53 PM 51.1 °F - 35.1 °F 54% 29.79 in 10.0 mi ENE 8.1 mph - N/A   Clear
10:53 PM 51.1 °F - 34.0 °F 52% 29.77 in 10.0 mi ENE 10.4 mph - N/A   Overcast
11:53 PM 48.9 °F - 36.0 °F 61% 29.77 in 10.0 mi ENE 6.9 mph - 0.00 in   Overcast